Location: Dal�� Lhota
(48.7500°N, 14.0167°E)
Time: 02:55:30
(UTC+00:00)

Transit 2A - Pass Details

Date: 05 August 2021
Orbit: 594 x 964 km, 66.7° (Epoch: 27 September)

Event Time Altitude Azimuth Distance (km) Brightness Sun altitude
Rises 08:09:42 0° 303° (WNW) 3,004 8.6 41.6°
Reaches altitude 10° 08:14:30 10° 347° (NNW) 2,198 8.2 42.3°
Maximum altitude 08:15:11 10° 355° (N) 2,197 8.2 42.4°
Drops below altitude 10° 08:15:53 10° 3° (N) 2,231 8.3 42.5°
Sets 08:21:04 0° 45° (NE) 3,285 9.4 43.3°
